Location: Altleiningen
(49.5078°N, 8.0741°E)
Time: 18:29:51
(UTC+00:00)

FALCON 9 DEB - Visible Passes

Search period start: 22 June 2021 00:00
Search period end: 02 July 2021 00:00
Orbit: 422 x 434 km, 53.0° (Epoch: 21 June)

Date Brightness Start Highest point End Pass type
(mag) Time Alt. Az. Time Alt. Az. Time Alt. Az.
22 Jun 2.9 00:03:55 10° WNW 00:07:20 77° SSW 00:10:10 14° ESE visible
22 Jun 4.8 01:41:34 10° W 01:43:08 16° WSW 01:43:08 16° WSW visible
22 Jun 4.3 21:42:14 10° WNW 21:45:32 44° N 21:48:50 10° ENE visible
22 Jun 3.1 23:19:15 10° WNW 23:22:41 81° NNE 23:25:15 16° ESE visible
23 Jun 4.6 00:56:30 10° W 00:58:16 20° WSW 00:58:16 20° WSW visible
23 Jun 4.3 20:57:28 10° WNW 21:00:47 45° N 21:04:05 10° ENE visible
23 Jun 3.5 22:34:35 10° WNW 22:37:59 64° NNE 22:41:03 12° E visible
24 Jun 4.0 00:11:37 10° WNW 00:14:08 31° WSW 00:14:08 31° WSW visible
24 Jun 3.8 21:49:53 10° WNW 21:53:15 54° NNE 21:56:37 10° E visible
24 Jun 3.3 23:26:50 10° WNW 23:30:09 48° SSW 23:30:16 48° SSW visible
25 Jun 4.1 21:05:10 10° WNW 21:08:31 48° N 21:11:50 10° E visible
25 Jun 3.0 22:42:07 10° WNW 22:45:32 68° SSW 22:46:35 40° SE visible
26 Jun 4.2 20:20:25 10° WNW 20:23:45 45° N 20:27:03 10° ENE visible
26 Jun 3.0 21:57:25 10° WNW 22:00:51 89° NNE 22:02:59 21° ESE visible
26 Jun 5.1 23:34:47 10° W 23:36:06 17° WSW 23:36:06 17° WSW visible
27 Jun 3.3 21:12:44 10° WNW 21:16:09 70° NNE 21:19:30 10° ESE visible
27 Jun 4.2 22:49:50 10° W 22:52:36 29° SW 22:52:36 29° SW visible
28 Jun 3.7 20:28:01 10° WNW 20:31:25 57° NNE 20:34:48 10° E visible
28 Jun 3.6 22:05:00 10° WNW 22:08:15 42° SW 22:09:10 33° S visible
29 Jun 3.2 21:20:14 10° WNW 21:23:37 60° SSW 21:25:46 20° SE visible
29 Jun 5.6 22:58:33 10° WSW 22:58:53 11° WSW 22:58:53 11° WSW visible
30 Jun 3.1 20:35:30 10° WNW 20:38:57 82° SSW 20:42:21 10° ESE visible
30 Jun 4.9 22:13:02 10° W 22:15:24 18° SW 22:15:32 18° SW visible
01 Jul 4.5 21:27:58 10° W 21:30:51 25° SW 21:32:15 19° S visible
